This is the latest recevied weather packets stored in our database for station/object E70ARA-3. If no packets are shown the sender has not sent any weather packets the latest 10 day(s).
| Time | Temp. | Humidity | Pressure | Rain* | Wind** | Luminosity | Snow |
|---|---|---|---|---|---|---|---|
| 1777544877 | 15° C | 41% | 1035.7 hPa | - | - | - | - |
| 1777543977 | 15.56° C | 42% | 1035.8 hPa | - | - | - | - |
| 1777543070 | 15.56° C | 46% | 1036 hPa | - | - | - | - |
| 1777542169 | 13.33° C | 51% | 1036.3 hPa | - | - | - | - |
| 1777541269 | 13.89° C | 58% | 1036.3 hPa | - | - | - | - |
| 1777540369 | 13.33° C | 52% | 1036.3 hPa | - | - | - | - |
| 1777539469 | 13.33° C | 63% | 1036.4 hPa | - | - | - | - |
| 1777538569 | 12.22° C | 63% | 1036.4 hPa | - | - | - | - |
| 1777537668 | 12.78° C | 60% | 1036.2 hPa | - | - | - | - |
| 1777536768 | 11.67° C | 60% | 1036.2 hPa | - | - | - | - |
| 1777535867 | 12.22° C | 65% | 1036.1 hPa | - | - | - | - |
| 1777534970 | 11.67° C | 67% | 1036.2 hPa | - | - | - | - |
| 1777534070 | 11.67° C | 68% | 1036 hPa | - | - | - | - |
| 1777533170 | 11.67° C | 71% | 1035.9 hPa | - | - | - | - |
| 1777532270 | 10.56° C | 73% | 1036 hPa | - | - | - | - |
| 1777531369 | 10.56° C | 78% | 1036 hPa | - | - | - | - |
| 1777530469 | 10.56° C | 75% | 1036 hPa | - | - | - | - |
| 1777529569 | 10.56° C | 76% | 1036 hPa | - | - | - | - |
| 1777528669 | 10° C | 78% | 1035.9 hPa | - | - | - | - |
| 1777527768 | 10° C | 81% | 1036 hPa | - | - | - | - |
| 1777526868 | 9.44° C | 78% | 1035.8 hPa | - | - | - | - |
| 1777525968 | 9.44° C | 80% | 1035.7 hPa | - | - | - | - |
| 1777525068 | 9.44° C | 80% | 1035.5 hPa | - | - | - | - |
| 1777524168 | 9.44° C | 79% | 1035.3 hPa | - | - | - | - |
| 1777523268 | 10° C | 84% | 1035.2 hPa | - | - | - | - |
* Rain since midnight (hover to see other rain measurements)
** Current wind speed in m/s (hover to see current wind gust speed)